Weather History for Wenatchee, WA

Change the Weather History Date:

Saturday, August 9, 2014

  Actual Average Record
Temperature  
Mean Temperature 68 °F 68 °F  
Max Temperature 87 °F 84 °F 104 °F (1971)
Min Temperature 49 °F 52 °F 46 °F (2011)
Degree Days  
Heating Degree Days 0 1  
Month to date heating degree days 0 9  
Since 1 June heating degree days 203 248  
Since 1 July heating degree days 12 61  
Cooling Degree Days 3 4  
Month to date cooling degree days 79 42  
Year to date cooling degree days 323 171  
Since 1 June cooling degree days 323 166  
Growing Degree Days 27 (Base 50)    
Moisture  
Dew Point 44 °F    
Average Humidity 33    
Maximum Humidity 52    
Minimum Humidity 15    
Precipitation  
Precipitation 0.00 in 0.02 in 0.07 in (1982)
Month to date precipitation 0.00 0.10  
Year to date precipitation 11.39 10.05  
Snow  
Snow 0.00 in 0.00 in - ()
Month to date snowfall 0.0 0.0  
Since 1 June snowfall 0.0 0.0  
Since 1 July snowfall 0.0 0.0  
Snow Depth 0.00 in    
Sea Level Pressure  
Sea Level Pressure 30.01 in    
Wind  
Wind Speed 9 mph (North)    
Max Wind Speed 15 mph    
Max Gust Speed -    
Visibility 10 miles    
Events      
T = Trace of Precipitation, MM = Missing Value Source: NWS Daily Summary

Daily Weather History Graph

Daily Weather History Graph

Search for Another Location

Airport:

Trip Planner

Search our weather history database for the weather conditions in past years. The results will help you decide how hot, cold, wet, or windy it might be!

Date:

Astronomy

Aug. 09, 2014 Rise Set
Actual Time 5:49 AM PDT 8:22 PM PDT
Civil Twilight 5:14 AM PDT 8:56 PM PDT
Nautical Twilight 4:31 AM PDT 9:40 PM PDT
Astronomical Twilight 3:40 AM PDT 10:30 PM PDT
Moon 7:25 PM PDT (8/9) 4:35 AM PDT (8/9)
Length of Visible Light 15h 42m
Length of Day
14h 32m
Waxing Gibbous, 99% of the Moon is Illuminated
Aug 9
Waxing Gibbous
Aug 10
Full
Aug 17
Last Quarter
Aug 25
New
Sep 2
First Quarter

Hourly Weather History & Observations

Time (PDT) Temp. Dew Point Humidity Pressure Visibility Wind Dir Wind Speed Gust Speed Precip Events Conditions
12:55 AM 70.0 °F 46.0 °F 42% 29.98 in 10.0 mi NW 15.0 mph - N/A   Clear
1:55 AM 68.0 °F 46.0 °F 45% 29.99 in 10.0 mi NNW 9.2 mph - N/A   Clear
2:55 AM 66.9 °F 46.0 °F 47% 29.99 in 10.0 mi NNW 11.5 mph - N/A   Clear
3:55 AM 66.9 °F 46.0 °F 47% 30.00 in 10.0 mi NNW 13.8 mph - N/A   Clear
4:55 AM 66.0 °F 46.0 °F 48% 30.01 in 10.0 mi NNW 11.5 mph - N/A   Clear
5:55 AM 64.9 °F 46.0 °F 50% 30.03 in 10.0 mi NW 10.4 mph - N/A   Clear
6:55 AM 64.0 °F 46.0 °F 52% 30.05 in 10.0 mi WNW 5.8 mph - N/A   Clear
7:55 AM 69.1 °F 45.0 °F 42% 30.06 in 10.0 mi NW 9.2 mph - N/A   Clear
8:55 AM 70.0 °F 46.0 °F 42% 30.06 in 10.0 mi Variable 5.8 mph - N/A   Clear
10:55 AM 77.0 °F 45.0 °F 32% 30.06 in 10.0 mi WNW 9.2 mph - N/A   Clear
11:55 AM 81.0 °F 42.1 °F 25% 30.04 in 10.0 mi Variable 4.6 mph - N/A   Clear
12:55 PM 84.0 °F 42.1 °F 23% 30.03 in 10.0 mi Variable 3.5 mph - N/A   Clear
1:55 PM 87.1 °F 39.9 °F 19% 30.02 in 10.0 mi ESE 5.8 mph - N/A   Clear
2:55 PM 89.1 °F 36.0 °F 15% 30.01 in 10.0 mi ESE 4.6 mph - N/A   Clear
3:55 PM 90.0 °F 37.0 °F 15% 29.98 in 10.0 mi SE 6.9 mph - N/A   Clear
4:55 PM 90.0 °F 41.0 °F 18% 29.97 in 10.0 mi SE 9.2 mph - N/A   Clear
5:55 PM 89.1 °F 44.1 °F 21% 29.96 in 10.0 mi ESE 6.9 mph - N/A   Clear
6:55 PM 87.1 °F 46.0 °F 24% 29.96 in 10.0 mi ESE 6.9 mph - N/A   Clear
7:55 PM 84.0 °F 45.0 °F 25% 29.96 in 10.0 mi ESE 8.1 mph - N/A   Clear
8:55 PM 79.0 °F 46.0 °F 31% 29.98 in 10.0 mi East 6.9 mph - N/A   Clear
9:55 PM 78.1 °F 45.0 °F 31% 30.00 in 10.0 mi Calm Calm - N/A   Clear
10:55 PM 77.0 °F 44.1 °F 31% 30.01 in 10.0 mi North 6.9 mph - N/A   Clear
11:55 PM 77.0 °F 46.9 °F 34% 30.01 in 10.0 mi NW 8.1 mph - N/A   Clear